Weather History for Scottsdale, AZ

Change the Weather History Date:

Tuesday, January 14, 2014

  Actual Average Record
Temperature  
Mean Temperature 56 °F -  
Max Temperature 73 °F 64 °F 80 °F (2000)
Min Temperature 39 °F 42 °F 26 °F (2007)
Degree Days  
Heating Degree Days 9    
Growing Degree Days 6 (Base 50)    
Moisture  
Dew Point 25 °F    
Average Humidity 36    
Maximum Humidity 60    
Minimum Humidity 12    
Precipitation  
Precipitation 0.00 in - - ()
Sea Level Pressure  
Sea Level Pressure 30.26 in    
Wind  
Wind Speed 1 mph (NW)    
Max Wind Speed 5 mph    
Max Gust Speed -    
Visibility 10 miles    
Events      
Averages and records for this station are not official NWS values.
T = Trace of Precipitation, MM = Missing Value Source: NWS Daily Summary

Daily Weather History Graph

Daily Weather History Graph

Search for Another Location

Airport:

Trip Planner

Search our weather history database for the weather conditions in past years. The results will help you decide how hot, cold, wet, or windy it might be!

Date:

Astronomy

Jan. 14, 2014 Rise Set
Actual Time 7:32 AM MST 5:41 PM MST
Civil Twilight 7:05 AM MST 6:08 PM MST
Nautical Twilight 6:34 AM MST 6:39 PM MST
Astronomical Twilight 6:04 AM MST 7:09 PM MST
Moon 4:48 PM MST (1/14) 6:10 AM MST (1/14)
Length of Visible Light 11h 03m
Length of Day
10h 09m
Waxing Gibbous, 98% of the Moon is Illuminated
Jan 14
Waxing Gibbous
Jan 15
Full
Jan 23
Last Quarter
Jan 30
New
Feb 6
First Quarter

Hourly Weather History & Observations

Time (MST) Temp. Dew Point Humidity Pressure Visibility Wind Dir Wind Speed Gust Speed Precip Events Conditions
12:53 AM 46.9 °F 25.0 °F 42% 30.24 in 10.0 mi Calm Calm - N/A   Clear
1:53 AM 46.0 °F 25.0 °F 44% 30.24 in 10.0 mi Calm Calm - N/A   Clear
2:53 AM 45.0 °F 25.0 °F 46% 30.24 in 10.0 mi Calm Calm - N/A   Clear
3:53 AM 41.0 °F 26.1 °F 55% 30.24 in 10.0 mi Calm Calm - N/A   Clear
4:53 AM 39.9 °F 27.0 °F 60% 30.25 in 10.0 mi Calm Calm - N/A   Clear
5:53 AM 39.9 °F 27.0 °F 60% 30.26 in 10.0 mi Calm Calm - N/A   Clear
6:53 AM 39.9 °F 26.1 °F 58% 30.28 in 10.0 mi Calm Calm - N/A   Clear
7:53 AM 41.0 °F 27.0 °F 57% 30.30 in 10.0 mi Calm Calm - N/A   Clear
8:53 AM 46.9 °F 28.0 °F 48% 30.32 in 10.0 mi Calm Calm - N/A   Clear
9:53 AM 54.0 °F 23.0 °F 30% 30.32 in 10.0 mi Calm Calm - N/A   Clear
10:53 AM 57.9 °F 25.0 °F 28% 30.32 in 10.0 mi SSW 3.5 mph - N/A   Clear
11:53 AM 61.0 °F 21.9 °F 22% 30.30 in 10.0 mi Calm Calm - N/A   Clear
12:53 PM 64.9 °F 24.1 °F 21% 30.25 in 10.0 mi Calm Calm - N/A   Clear
1:53 PM 69.1 °F 21.0 °F 16% 30.22 in 10.0 mi WNW 4.6 mph - N/A   Clear
2:53 PM 72.0 °F 19.0 °F 13% 30.21 in 10.0 mi Calm Calm - N/A   Clear
3:53 PM 73.0 °F 18.0 °F 12% 30.21 in 10.0 mi Calm Calm - N/A   Clear
4:53 PM 71.1 °F 24.1 °F 17% 30.22 in 10.0 mi Calm Calm - N/A   Clear
5:53 PM 66.0 °F 26.1 °F 22% 30.23 in 10.0 mi Calm Calm - N/A   Clear
6:53 PM 60.1 °F 28.0 °F 30% 30.25 in 10.0 mi Calm Calm - N/A   Clear
7:53 PM 57.9 °F 28.9 °F 33% 30.26 in 10.0 mi NNW 3.5 mph - N/A   Clear
8:53 PM 55.0 °F 28.9 °F 37% 30.26 in 10.0 mi NW 4.6 mph - N/A   Clear
9:53 PM 52.0 °F 28.9 °F 41% 30.27 in 10.0 mi Calm Calm - N/A   Clear
10:53 PM 52.0 °F 25.0 °F 35% 30.26 in 10.0 mi East 3.5 mph - N/A   Clear
11:53 PM 48.9 °F 28.0 °F 44% 30.25 in 10.0 mi Calm Calm - N/A   Clear